Weather History for Dayton, OH

Change the Weather History Date:

Wednesday, June 5, 2013

  Actual Average Record
Temperature  
Mean Temperature 68 °F 68 °F  
Max Temperature 81 °F 77 °F 98 °F (1925)
Min Temperature 54 °F 58 °F 40 °F (1990)
Degree Days  
Heating Degree Days 0 2  
Month to date heating degree days 9 10  
Since 1 June heating degree days 9 10  
Since 1 July heating degree days 5455 5630  
Cooling Degree Days 3 4  
Month to date cooling degree days 14 20  
Year to date cooling degree days 145 90  
Since 1 June cooling degree days 14 20  
Growing Degree Days 18 (Base 50)    
Moisture  
Dew Point 51 °F    
Average Humidity 58    
Maximum Humidity 77    
Minimum Humidity 39    
Precipitation  
Precipitation 0.00 in 0.14 in 3.76 in (1981)
Month to date precipitation T 0.73  
Year to date precipitation 14.30 17.77  
Snow  
Snow 0.00 in 0.00 in 0.00 in ()
Month to date snowfall 0.0 0.0  
Since 1 June snowfall 0.0 0.0  
Since 1 July snowfall 36.3 23.3  
Snow Depth 0.00 in    
Sea Level Pressure  
Sea Level Pressure 30.01 in    
Wind  
Wind Speed 6 mph (ENE)    
Max Wind Speed 15 mph    
Max Gust Speed 18 mph    
Visibility 10 miles    
Events      
T = Trace of Precipitation, MM = Missing Value Source: NWS Daily Summary

Daily Weather History Graph

Daily Weather History Graph

Search for Another Location

Airport:

Trip Planner

Search our weather history database for the weather conditions in past years. The results will help you decide how hot, cold, wet, or windy it might be!

Date:

Astronomy

Jun. 05, 2013 Rise Set
Actual Time 6:08 AM EDT 9:02 PM EDT
Civil Twilight 5:36 AM EDT 9:34 PM EDT
Nautical Twilight 4:55 AM EDT 10:15 PM EDT
Astronomical Twilight 4:08 AM EDT 11:02 PM EDT
Moon 4:12 AM EDT (6/5) 6:28 PM EDT (6/5)
Length of Visible Light 15h 58m
Length of Day
14h 53m
Waning Crescent, 8% of the Moon is Illuminated
Jun 5
Waning Crescent
Jun 8
New
Jun 16
First Quarter
Jun 23
Full
Jun 30
Last Quarter

Hourly Weather History & Observations

Time (EDT) Temp. Heat Index Dew Point Humidity Pressure Visibility Wind Dir Wind Speed Gust Speed Precip Events Conditions
12:56 AM 59.0 °F - 46.0 °F 62% 30.12 in 10.0 mi ENE 8.1 mph - N/A   Scattered Clouds
1:56 AM 57.9 °F - 45.0 °F 62% 30.11 in 10.0 mi ENE 8.1 mph - N/A   Mostly Cloudy
2:56 AM 57.0 °F - 45.0 °F 64% 30.10 in 10.0 mi ENE 5.8 mph - N/A   Overcast
3:56 AM 57.0 °F - 45.0 °F 64% 30.09 in 10.0 mi East 8.1 mph - N/A   Overcast
4:56 AM 55.9 °F - 45.0 °F 67% 30.09 in 10.0 mi East 4.6 mph - N/A   Overcast
5:56 AM 54.0 °F - 46.0 °F 75% 30.09 in 10.0 mi ENE 3.5 mph - N/A   Mostly Cloudy
6:56 AM 54.0 °F - 46.9 °F 77% 30.10 in 10.0 mi NE 4.6 mph - N/A   Mostly Cloudy
7:56 AM 59.0 °F - 46.9 °F 64% 30.09 in 10.0 mi East 10.4 mph - N/A   Scattered Clouds
8:56 AM 64.0 °F - 48.9 °F 58% 30.09 in 10.0 mi East 5.8 mph - N/A   Partly Cloudy
9:56 AM 66.9 °F - 50.0 °F 54% 30.09 in 10.0 mi East 6.9 mph - N/A   Partly Cloudy
10:56 AM 71.1 °F - 51.1 °F 49% 30.04 in 10.0 mi East 9.2 mph - N/A   Partly Cloudy
11:56 AM 73.0 °F - 50.0 °F 44% 30.03 in 10.0 mi East 9.2 mph - N/A   Partly Cloudy
12:56 PM 75.0 °F - 51.1 °F 43% 30.01 in 10.0 mi ENE 5.8 mph - N/A   Partly Cloudy
1:56 PM 75.9 °F - 51.1 °F 42% 30.01 in 10.0 mi NE 5.8 mph - N/A   Partly Cloudy
2:56 PM 79.0 °F - 53.1 °F 40% 29.99 in 10.0 mi Variable 4.6 mph - N/A   Partly Cloudy
3:56 PM 79.0 °F - 53.1 °F 40% 29.96 in 10.0 mi Variable 4.6 mph - N/A   Mostly Cloudy
4:56 PM 80.1 °F 80.0 °F 54.0 °F 40% 29.94 in 10.0 mi SE 4.6 mph - N/A   Mostly Cloudy
5:56 PM 79.0 °F - 55.0 °F 44% 29.93 in 10.0 mi SE 5.8 mph - N/A   Overcast
6:56 PM 79.0 °F - 54.0 °F 42% 29.90 in 10.0 mi West 3.5 mph - N/A   Mostly Cloudy
7:56 PM 75.9 °F - 57.9 °F 54% 29.90 in 10.0 mi ENE 3.5 mph - N/A   Mostly Cloudy
8:56 PM 75.0 °F - 55.9 °F 51% 29.88 in 10.0 mi NE 3.5 mph - N/A   Overcast
9:56 PM 73.9 °F - 55.9 °F 53% 29.88 in 10.0 mi NNE 3.5 mph - N/A   Overcast
10:56 PM 72.0 °F - 55.0 °F 55% 29.90 in 10.0 mi NE 11.5 mph - N/A   Overcast
11:56 PM 69.1 °F - 53.1 °F 57% 29.90 in 10.0 mi NE 13.8 mph - N/A   Overcast